Zurück zum Katalog

STARLINK-4606

AktivKommunikationVLEO
NORAD 53632·PAYLOAD·🇺🇸 United States

Gestartet Aug 28, 2022 von Cape Canaveral Space Force Station

Loading…

Nächste Überflüge (nächste 24 Stunden)

TLE

AktuellSource: CelesTrak SupGP

Epoche: Sep 14, 2026, 21:28 UTC

1 53632C 22104AW  26257.89493056  .00016437  00000+0  47042-3 0  2571
2 53632  53.1583  88.0095 0001215  84.5081   1.9777 15.35380422    16

Verfolge STARLINK-4606 in Echtzeit mit AllMySat

Download on the App Store